JAL1463 RJTT-RJSN

Flight info

Callsign JAL1463
Flight time 0h 44m
Altitude 22000
Route AKAGI V15 KALON MAUKA TAGOK Y37 GOSEN
Aircraft A359/H-SDE2E3GHIJ3J4J5LM1ORWXY/LB1D1

Departure

Time 2026-05-06 18:52
Airport Tokyo Haneda International Airport (RJTT)

Arrival

Time 2026-05-06 19:36
Airport Niigata Airport (RJSN)
Time Latitude Longitude Altitude Speed Heading
2026-05-06 17:45 35.54649 139.78420 31 ft 0 kts 58°
2026-05-06 18:37 35.54648 139.78419 31 ft 1 kts 58°
2026-05-06 18:37 35.54640 139.78403 30 ft 4 kts 58°
2026-05-06 18:37 35.54621 139.78366 30 ft 4 kts 58°
2026-05-06 18:37 35.54609 139.78342 28 ft 4 kts 54°
2026-05-06 18:38 35.54591 139.78319 29 ft 4 kts 24°
2026-05-06 18:38 35.54566 139.78313 29 ft 4 kts 350°
2026-05-06 18:38 35.54541 139.78323 30 ft 4 kts 332°
2026-05-06 18:38 35.54524 139.78335 30 ft 0 kts 331°
2026-05-06 18:41 35.54526 139.78333 31 ft 3 kts 331°
2026-05-06 18:41 35.54550 139.78316 31 ft 8 kts 330°
2026-05-06 18:41 35.54587 139.78266 31 ft 8 kts 288°
2026-05-06 18:41 35.54589 139.78192 30 ft 10 kts 283°
2026-05-06 18:42 35.54638 139.78127 30 ft 11 kts 328°
2026-05-06 18:42 35.54713 139.78074 29 ft 14 kts 330°
2026-05-06 18:42 35.54798 139.78012 30 ft 15 kts 330°
2026-05-06 18:42 35.54895 139.77944 30 ft 17 kts 330°
2026-05-06 18:43 35.55010 139.77863 30 ft 22 kts 330°
2026-05-06 18:43 35.55152 139.77761 30 ft 25 kts 329°
2026-05-06 18:43 35.55304 139.77654 30 ft 26 kts 330°
2026-05-06 18:43 35.55463 139.77542 30 ft 27 kts 330°
2026-05-06 18:44 35.55599 139.77447 30 ft 17 kts 329°
2026-05-06 18:44 35.55689 139.77381 30 ft 14 kts 330°
2026-05-06 18:44 35.55772 139.77322 29 ft 10 kts 329°
2026-05-06 18:44 35.55842 139.77272 29 ft 13 kts 330°
2026-05-06 18:45 35.55928 139.77277 29 ft 14 kts 28°
2026-05-06 18:45 35.56010 139.77348 29 ft 16 kts 36°
2026-05-06 18:45 35.56087 139.77413 29 ft 13 kts 34°
2026-05-06 18:45 35.56144 139.77462 29 ft 10 kts 35°
2026-05-06 18:46 35.56211 139.77520 29 ft 14 kts 35°
2026-05-06 18:46 35.56260 139.77617 29 ft 14 kts 101°
2026-05-06 18:46 35.56189 139.77692 29 ft 15 kts 148°
2026-05-06 18:46 35.56162 139.77766 29 ft 9 kts 83°
2026-05-06 18:47 35.56188 139.77837 29 ft 10 kts 60°
2026-05-06 18:47 35.56226 139.77918 29 ft 12 kts 59°
2026-05-06 18:47 35.56273 139.78016 29 ft 14 kts 61°
2026-05-06 18:47 35.56313 139.78102 29 ft 10 kts 59°
2026-05-06 18:48 35.56354 139.78187 29 ft 13 kts 59°
2026-05-06 18:48 35.56400 139.78285 29 ft 13 kts 60°
2026-05-06 18:48 35.56447 139.78384 29 ft 12 kts 60°
2026-05-06 18:48 35.56490 139.78478 29 ft 14 kts 60°
2026-05-06 18:49 35.56511 139.78522 29 ft 0 kts 58°
2026-05-06 18:49 35.56540 139.78580 29 ft 22 kts 59°
2026-05-06 18:49 35.56543 139.78688 30 ft 11 kts 129°
2026-05-06 18:49 35.56500 139.78723 30 ft 0 kts 151°
2026-05-06 18:51 35.56412 139.78784 30 ft 49 kts 150°
2026-05-06 18:51 35.55891 139.79152 30 ft 121 kts 150°
2026-05-06 18:52 35.54993 139.79784 177 ft 162 kts 150°
2026-05-06 18:52 35.54042 139.80438 1051 ft 155 kts 152°
2026-05-06 18:52 35.53092 139.81082 1707 ft 162 kts 153°
2026-05-06 18:52 35.52025 139.81788 2058 ft 186 kts 154°
2026-05-06 18:53 35.50951 139.82855 2415 ft 213 kts 134°
2026-05-06 18:53 35.49996 139.84369 2862 ft 233 kts 131°
2026-05-06 18:53 35.48700 139.85654 3278 ft 249 kts 158°
2026-05-06 18:53 35.46997 139.85838 3883 ft 250 kts 198°
2026-05-06 18:54 35.45516 139.84798 4775 ft 247 kts 226°
2026-05-06 18:54 35.44538 139.83076 5683 ft 247 kts 239°
2026-05-06 18:54 35.43675 139.81241 6591 ft 250 kts 240°
2026-05-06 18:54 35.42842 139.79358 7459 ft 253 kts 242°
2026-05-06 18:55 35.42046 139.77419 8360 ft 257 kts 243°
2026-05-06 18:55 35.41141 139.75521 9271 ft 260 kts 233°
2026-05-06 18:55 35.39843 139.73965 10169 ft 265 kts 216°
2026-05-06 18:55 35.38084 139.73232 10923 ft 277 kts 193°
2026-05-06 18:56 35.36105 139.72799 11231 ft 300 kts 197°
2026-05-06 18:56 35.34203 139.71664 11546 ft 314 kts 218°
2026-05-06 18:56 35.32512 139.69852 11939 ft 331 kts 224°
2026-05-06 18:56 35.30762 139.67947 12545 ft 341 kts 223°
2026-05-06 18:57 35.28921 139.66072 13241 ft 348 kts 221°
2026-05-06 18:57 35.27014 139.64213 13932 ft 353 kts 220°
2026-05-06 18:57 35.25065 139.62359 14570 ft 357 kts 220°
2026-05-06 18:57 35.23114 139.60529 15289 ft 359 kts 220°
2026-05-06 18:58 35.21137 139.58652 16006 ft 360 kts 222°
2026-05-06 18:58 35.19435 139.56475 16674 ft 359 kts 236°
2026-05-06 18:58 35.18268 139.53766 17518 ft 356 kts 251°
2026-05-06 18:58 35.17771 139.50796 18143 ft 362 kts 265°
2026-05-06 18:59 35.18018 139.47688 18558 ft 375 kts 282°
2026-05-06 18:59 35.19055 139.44738 19138 ft 383 kts 298°
2026-05-06 18:59 35.20806 139.42237 19750 ft 394 kts 315°
2026-05-06 18:59 35.23175 139.40469 20353 ft 408 kts 333°
2026-05-06 19:00 35.25941 139.39699 20910 ft 423 kts 352°
2026-05-06 19:00 35.28905 139.40053 21439 ft 438 kts 11°
2026-05-06 19:00 35.31733 139.41536 21915 ft 449 kts 28°
2026-05-06 19:00 35.34307 139.43719 22079 ft 450 kts 34°
2026-05-06 19:01 35.36809 139.45988 22086 ft 445 kts 34°
2026-05-06 19:01 35.39298 139.48204 22094 ft 442 kts 33°
2026-05-06 19:01 35.41801 139.50389 22084 ft 441 kts 33°
2026-05-06 19:01 35.44312 139.52553 22083 ft 441 kts 32°
2026-05-06 19:02 35.46857 139.54659 22081 ft 441 kts 27°
2026-05-06 19:02 35.49669 139.56067 22100 ft 434 kts 10°
2026-05-06 19:02 35.52623 139.56760 22089 ft 431 kts
2026-05-06 19:02 35.55599 139.57127 22070 ft 429 kts 360°
2026-05-06 19:03 35.58588 139.57351 22082 ft 434 kts 358°
2026-05-06 19:03 35.61667 139.57541 22084 ft 452 kts 359°
2026-05-06 19:03 35.64867 139.57755 22077 ft 469 kts 359°
2026-05-06 19:03 35.68167 139.58018 22073 ft 480 kts
2026-05-06 19:04 35.71494 139.58325 22095 ft 481 kts
2026-05-06 19:04 35.74845 139.58660 22095 ft 481 kts
2026-05-06 19:04 35.78184 139.59006 22100 ft 481 kts
2026-05-06 19:04 35.81511 139.59354 22107 ft 479 kts
2026-05-06 19:05 35.84826 139.59700 22105 ft 477 kts
2026-05-06 19:05 35.88126 139.60042 22097 ft 476 kts
2026-05-06 19:05 35.91428 139.60381 22100 ft 476 kts
2026-05-06 19:05 35.94725 139.60718 22098 ft 476 kts
2026-05-06 19:06 35.97972 139.61048 22103 ft 475 kts
2026-05-06 19:06 36.01263 139.61384 22100 ft 474 kts
2026-05-06 19:06 36.04551 139.61719 22096 ft 473 kts
2026-05-06 19:06 36.07829 139.62055 22097 ft 473 kts
2026-05-06 19:07 36.11111 139.62390 22100 ft 473 kts
2026-05-06 19:07 36.14385 139.62725 22099 ft 473 kts
2026-05-06 19:07 36.17666 139.63061 22100 ft 473 kts
2026-05-06 19:07 36.20940 139.63397 22101 ft 472 kts
2026-05-06 19:08 36.24213 139.63733 22099 ft 472 kts
2026-05-06 19:08 36.27477 139.64069 22101 ft 472 kts
2026-05-06 19:08 36.30756 139.64406 22099 ft 472 kts
2026-05-06 19:08 36.34026 139.64742 22102 ft 472 kts
2026-05-06 19:09 36.37300 139.65079 22101 ft 472 kts
2026-05-06 19:09 36.40567 139.65416 22101 ft 471 kts
2026-05-06 19:09 36.43826 139.65753 22102 ft 469 kts
2026-05-06 19:09 36.47079 139.66029 22099 ft 468 kts 357°
2026-05-06 19:10 36.50285 139.65612 22105 ft 462 kts 346°
2026-05-06 19:10 36.53372 139.64767 22102 ft 461 kts 343°
2026-05-06 19:10 36.56513 139.63713 22114 ft 460 kts 341°
2026-05-06 19:10 36.59534 139.62597 22105 ft 458 kts 340°
2026-05-06 19:11 36.62625 139.61416 22107 ft 458 kts 340°
2026-05-06 19:11 36.65625 139.60265 22110 ft 458 kts 340°
2026-05-06 19:11 36.68669 139.59107 22110 ft 457 kts 340°
2026-05-06 19:11 36.71714 139.57964 22116 ft 458 kts 340°
2026-05-06 19:12 36.74763 139.56833 22119 ft 458 kts 340°
2026-05-06 19:12 36.77821 139.55707 22118 ft 457 kts 340°
2026-05-06 19:12 36.80874 139.54584 22115 ft 457 kts 340°
2026-05-06 19:12 36.83922 139.53467 22115 ft 457 kts 340°
2026-05-06 19:13 36.86972 139.52344 22114 ft 457 kts 340°
2026-05-06 19:13 36.90023 139.51216 22130 ft 457 kts 340°
2026-05-06 19:13 36.93077 139.50086 22113 ft 457 kts 340°
2026-05-06 19:13 36.96124 139.48957 22124 ft 457 kts 340°
2026-05-06 19:14 36.99175 139.47828 22118 ft 457 kts 340°
2026-05-06 19:14 37.02222 139.46698 22112 ft 457 kts 340°
2026-05-06 19:14 37.05261 139.45574 22131 ft 457 kts 340°
2026-05-06 19:14 37.08319 139.44447 22115 ft 457 kts 340°
2026-05-06 19:15 37.11370 139.43314 22118 ft 457 kts 340°
2026-05-06 19:15 37.14410 139.42180 22115 ft 456 kts 339°
2026-05-06 19:15 37.17456 139.41043 22111 ft 457 kts 340°
2026-05-06 19:15 37.20504 139.39904 22112 ft 457 kts 340°
2026-05-06 19:16 37.23548 139.38767 22105 ft 457 kts 340°
2026-05-06 19:16 37.26595 139.37629 22109 ft 457 kts 340°
2026-05-06 19:16 37.29639 139.36490 22107 ft 457 kts 340°
2026-05-06 19:16 37.32682 139.35351 22108 ft 457 kts 339°
2026-05-06 19:17 37.35726 139.34213 22031 ft 448 kts 340°
2026-05-06 19:17 37.38630 139.33136 21368 ft 426 kts 339°
2026-05-06 19:17 37.41442 139.32086 20329 ft 420 kts 340°
2026-05-06 19:17 37.44222 139.31037 19801 ft 414 kts 340°
2026-05-06 19:18 37.46900 139.29793 19218 ft 406 kts 331°
2026-05-06 19:18 37.49274 139.27935 18632 ft 400 kts 320°
2026-05-06 19:18 37.51410 139.25791 18018 ft 396 kts 317°
2026-05-06 19:18 37.53512 139.23574 17409 ft 392 kts 317°
2026-05-06 19:19 37.55577 139.21369 16844 ft 387 kts 317°
2026-05-06 19:19 37.57642 139.19154 16270 ft 382 kts 316°
2026-05-06 19:19 37.59630 139.17016 15720 ft 378 kts 316°
2026-05-06 19:19 37.61618 139.14873 15180 ft 375 kts 316°
2026-05-06 19:20 37.63592 139.12742 14622 ft 371 kts 316°
2026-05-06 19:20 37.65543 139.10633 14075 ft 368 kts 316°
2026-05-06 19:20 37.67484 139.08542 13480 ft 365 kts 316°
2026-05-06 19:20 37.69406 139.06465 12854 ft 363 kts 316°
2026-05-06 19:21 37.71309 139.04398 12291 ft 358 kts 316°
2026-05-06 19:21 37.73189 139.02355 11748 ft 354 kts 316°
2026-05-06 19:21 37.75019 139.00370 11574 ft 339 kts 316°
2026-05-06 19:21 37.76769 138.98474 11444 ft 324 kts 316°
2026-05-06 19:22 37.78434 138.96667 11314 ft 309 kts 316°
2026-05-06 19:22 37.80034 138.94929 11184 ft 296 kts 315°
2026-05-06 19:22 37.81557 138.93273 11065 ft 283 kts 315°
2026-05-06 19:22 37.83023 138.91681 10925 ft 272 kts 315°
2026-05-06 19:23 37.84585 138.90340 10691 ft 274 kts 331°
2026-05-06 19:23 37.86442 138.89781 10367 ft 280 kts 355°
2026-05-06 19:23 37.88362 138.90275 10029 ft 286 kts 22°
2026-05-06 19:23 37.90041 138.91696 9741 ft 300 kts 38°
2026-05-06 19:24 37.91645 138.93452 9623 ft 306 kts 39°
2026-05-06 19:24 37.93236 138.95223 9145 ft 306 kts 39°
2026-05-06 19:24 37.94846 138.97001 8627 ft 307 kts 39°
2026-05-06 19:24 37.96455 138.98767 8214 ft 305 kts 39°
2026-05-06 19:25 37.98047 139.00509 7856 ft 301 kts 39°
2026-05-06 19:25 37.99625 139.02233 7483 ft 298 kts 39°
2026-05-06 19:25 38.01194 139.03945 7155 ft 298 kts 39°
2026-05-06 19:25 38.02765 139.05659 6804 ft 297 kts 39°
2026-05-06 19:26 38.04327 139.07363 6452 ft 295 kts 39°
2026-05-06 19:26 38.05875 139.09054 6087 ft 293 kts 39°
2026-05-06 19:26 38.07393 139.10712 5743 ft 291 kts 39°
2026-05-06 19:26 38.08936 139.12399 5398 ft 288 kts 39°
2026-05-06 19:27 38.10432 139.14035 5083 ft 286 kts 39°
2026-05-06 19:27 38.11931 139.15676 4779 ft 284 kts 39°
2026-05-06 19:27 38.13441 139.17278 4437 ft 280 kts 34°
2026-05-06 19:27 38.15174 139.18282 4227 ft 272 kts
2026-05-06 19:28 38.16980 139.18119 4005 ft 254 kts 338°
2026-05-06 19:28 38.18415 139.16971 3830 ft 238 kts 311°
2026-05-06 19:28 38.19250 139.15256 3729 ft 221 kts 287°
2026-05-06 19:28 38.19452 139.13399 3644 ft 206 kts 265°
2026-05-06 19:29 38.19110 139.11704 3560 ft 193 kts 245°
2026-05-06 19:29 38.18344 139.10330 3439 ft 191 kts 225°
2026-05-06 19:29 38.17646 139.09646 3355 ft 192 kts 212°
2026-05-06 19:29 38.16370 139.09048 3255 ft 200 kts 192°
2026-05-06 19:30 38.14952 139.09094 3124 ft 205 kts 169°
2026-05-06 19:30 38.13661 139.09812 3035 ft 208 kts 147°
2026-05-06 19:30 38.12531 139.10972 2925 ft 209 kts 144°
2026-05-06 19:30 38.11293 139.11900 2795 ft 205 kts 163°
2026-05-06 19:31 38.09909 139.12170 2675 ft 200 kts 186°
2026-05-06 19:31 38.08576 139.11739 2542 ft 197 kts 208°
2026-05-06 19:31 38.06424 139.09643 2306 ft 195 kts 223°
2026-05-06 19:32 38.05404 139.08495 2160 ft 196 kts 223°
2026-05-06 19:32 38.04382 139.07355 2050 ft 195 kts 222°
2026-05-06 19:32 38.03366 139.06228 1933 ft 190 kts 222°
2026-05-06 19:32 38.02396 139.05163 1871 ft 178 kts 221°
2026-05-06 19:33 38.01485 139.04169 1686 ft 170 kts 222°
2026-05-06 19:33 38.00649 139.03231 1637 ft 152 kts 223°
2026-05-06 19:33 37.99768 139.02637 1598 ft 139 kts 197°
2026-05-06 19:33 37.98814 139.02584 1497 ft 139 kts 173°
2026-05-06 19:34 37.97887 139.02918 1261 ft 138 kts 158°
2026-05-06 19:34 37.97047 139.03487 1081 ft 137 kts 148°
2026-05-06 19:34 37.96329 139.04287 924 ft 139 kts 130°
2026-05-06 19:34 37.95846 139.05345 736 ft 139 kts 112°
2026-05-06 19:35 37.95692 139.06534 527 ft 138 kts 85°
2026-05-06 19:35 37.95761 139.07731 315 ft 135 kts 96°
2026-05-06 19:35 37.95706 139.08921 154 ft 136 kts 94°
2026-05-06 19:35 37.95665 139.10097 35 ft 128 kts 94°
2026-05-06 19:36 37.95626 139.11115 23 ft 102 kts 93°
2026-05-06 19:36 37.95602 139.11779 22 ft 29 kts 92°
2026-05-06 19:36 37.95595 139.11970 20 ft 16 kts 92°
2026-05-06 19:36 37.95576 139.12033 22 ft 7 kts 144°
2026-05-06 19:37 37.95529 139.12023 20 ft 9 kts 214°
2026-05-06 19:37 37.95467 139.11973 21 ft 12 kts 211°
2026-05-06 19:37 37.95433 139.11880 23 ft 14 kts 271°
2026-05-06 19:37 37.95437 139.11744 21 ft 16 kts 272°
2026-05-06 19:38 37.95441 139.11623 23 ft 8 kts 272°
2026-05-06 19:38 37.95445 139.11535 22 ft 12 kts 272°
2026-05-06 19:38 37.95449 139.11413 18 ft 15 kts 272°
2026-05-06 19:38 37.95435 139.11322 23 ft 6 kts 209°
2026-05-06 19:39 37.95399 139.11323 21 ft 5 kts 182°
2026-05-06 19:39 37.95354 139.11320 20 ft 9 kts 183°
2026-05-06 19:39 37.95322 139.11319 18 ft 2 kts 182°
2026-05-06 19:39 37.95320 139.11319 18 ft 0 kts 182°